World > North America > United States > Iowa

Hourly Georgetown, IA Regional Weather

Feedback E-mail the Weather

Quick WX

Georgetown, IA Weather Maps

°F °C°F °C
Georgetown Weather Map
UTC Time: 7/6/2022, 03:33
Your Time:

Georgetown, IA Regional Weather

Expires:202207060400;;761391
ASUS43 KDMX 060306
RWRIA 

WEATHER ROUNDUP FOR IOWA
NATIONAL WEATHER SERVICE DES MOINES IA
1000 PM CDT TUE JUL 05 2022

NOTE: "FAIR" INDICATES FEW OR NO CLOUDS BELOW 12,000 FEET WITH NO
SIGNIFICANT WEATHER AND/OR OBSTRUCTIONS TO VISIBILITY.

* - THESE STATIONS ARE NOT NWS STATIONS...THUS NOT UNDER NWS
QUALITY CONTROL.  THEY ALSO DO NOT REPORT WEATHER SUCH 
AS PRECIPITATION OR FOG.  


IAZ062-063-075>077-085>089-095>099-060400-
   SOUTHEAST IOWA
  
CITY           SKY/WX    TMP DP  RH WIND       PRES   REMARKS
BURLINGTON     MOCLDY    84  73  69 S7        29.84R HX  90           
FAIRFIELD *    CLOUDY    77  66  69 NW28G54   29.92R                  
FORT MADISON * CLOUDY    88  72  58 S6        29.84R HX  94           
KEOKUK *       CLOUDY    86  72  62 SW6       29.85R HX  92           
OSKALOOSA *    LGT RAIN  73  73 100 N10G17    29.93                   
OTTUMWA        HVY RAIN  71  71 100 N20G37    29.92R FOG              
WASHINGTON *   MOCLDY    81  68  65 NW32G49   29.89R HX  83           
$$

ABBREVIATIONS USED IN REMARKS
   TC - TEMPERATURES IN CELSIUS
  WCI - WIND CHILL INDEX
   HX - HEAT INDEX
  VSB - VISIBILITY  
$$

  

SKY/WX - Weather  TMP - Temperature  DP - Dew Point  RH - Humidity
WIND - Wind Direction/Speed PRES - Barometric Pressure VSB - Visibility
WCI - Wind Chill Index E13G22 Wind - East Wind 13 mph/Gusts of 22 mph

Trending Headlines

Georgetown Radar Loop



Georgetown Quick Facts


National Two Day Weather Forecast


E-mail the Georgetown Weather Forecast

Voice your opinion or tell us about page issues...